Tracking 33203 objects as of 15-Feb-2026
HD Live streaming from Space Station
objects crossing your sky now

STARLINK-5293

Track STARLINK-5293 now!
10-day predictions
STARLINK-5293 is classified as:


NORAD ID: 55295
Int'l Code: 2023-010AC
Perigee: 577.1 km
Apogee: 581.3 km
Inclination: 70.0 °
Period: 96.1 minutes
Semi major axis: 6950 km
RCS: Unknown
Launch date: January 19, 2023
Source: United States (US)
Launch site: AIR FORCE WESTERN TEST RANGE (AFWTR)
Your satellite tracking list
Your tracking list is empty




NASA's NSSDC Master Catalog

Two Line Element Set (TLE):
1 55295U 23010AC  26046.53215742  .00000227  00000-0  26826-4 0  9998
2 55295  69.9993 100.4584 0003016 265.5875  94.4940 14.98329642169467
Source of the keplerian elements: AFSPC